Menominee, MI

7:25 AM CST on February 19, 2017 (GMT -0600)
Menominee-Marinette Twin County

Weather History for KMNM - March, 2015

Change the Weather History Date:

Wednesday, March 25, 2015

  Actual Average Record
Temperature  
Mean Temperature 34 °F -  
Max Temperature 39 °F 44 °F 61 °F (1968)
Min Temperature 28 °F 24 °F 4 °F (1960)
Degree Days  
Heating Degree Days 32    
Moisture  
Dew Point 27 °F    
Average Humidity 75    
Maximum Humidity 93    
Minimum Humidity 56    
Precipitation  
Precipitation 0.26 in - - ()
Sea Level Pressure  
Sea Level Pressure 29.81 in    
Wind  
Wind Speed 9 mph (WSW)    
Max Wind Speed 15 mph    
Max Gust Speed 23 mph    
Visibility 8 miles    
Events      
Averages and records for this station are not official NWS values.
T = Trace of Precipitation, MM = Missing Value Source: NWS Daily Summary

Daily Weather History Graph

Daily Weather History Graph

Search for Another Location

Airport or City:

Trip Planner

Search our weather history database for the weather conditions in past years. The results will help you decide how hot, cold, wet, or windy it might be!

Date:

Astronomy

Mar. 25, 2015 Rise Set
Actual Time 6:44 AM CDT 7:09 PM CDT
Civil Twilight 6:15 AM CDT 7:38 PM CDT
Nautical Twilight 5:40 AM CDT 8:13 PM CDT
Astronomical Twilight 5:04 AM CDT 8:49 PM CDT
Moon 10:19 AM CDT (3/25) 12:26 AM CDT (3/25)
Length of Visible Light 13h 23m
Length of Day
12h 24m
Waxing Crescent, 34% of the Moon is Illuminated
Mar 25
Waxing Crescent
Mar 27
First Quarter
Apr 4
Full
Apr 11
Last Quarter
Apr 18
New

Hourly Weather History & Observations

Time (CDT) Temp. Windchill Dew Point Humidity Pressure Visibility Wind Dir Wind Speed Gust Speed Precip Events Conditions
12:15 AM 28.4 °F 21.2 °F 24.8 °F 86% 30.05 in 10.0 mi East 6.9 mph - N/A   Clear
12:35 AM 28.4 °F 20.4 °F 24.8 °F 86% 30.03 in 10.0 mi East 8.1 mph - N/A   Clear
12:55 AM 28.4 °F 19.7 °F 23.0 °F 80% 30.01 in 10.0 mi East 9.2 mph - N/A   Clear
1:15 AM 28.4 °F 19.7 °F 23.0 °F 80% 29.99 in 10.0 mi East 9.2 mph - N/A   Mostly Cloudy
1:35 AM 30.2 °F 21.3 °F 24.8 °F 80% 29.97 in 10.0 mi ENE 10.4 mph - N/A   Overcast
1:55 AM 30.2 °F 20.8 °F 24.8 °F 80% 29.96 in 10.0 mi ENE 11.5 mph - N/A   Overcast
2:15 AM 30.2 °F 19.8 °F 24.8 °F 80% 29.93 in 10.0 mi East 13.8 mph - N/A   Overcast
2:35 AM 30.2 °F 19.8 °F 24.8 °F 80% 29.91 in 10.0 mi East 13.8 mph - N/A   Overcast
2:55 AM 30.2 °F 20.8 °F 23.0 °F 75% 29.92 in 10.0 mi East 11.5 mph - N/A   Overcast
3:15 AM 32.0 °F 24.8 °F 23.0 °F 69% 29.94 in 10.0 mi SE 8.1 mph - N/A   Overcast
3:35 AM 32.0 °F 27.5 °F 24.8 °F 75% 29.92 in 10.0 mi ESE 4.6 mph - N/A   Overcast
3:55 AM 32.0 °F 24.8 °F 23.0 °F 69% 29.89 in 10.0 mi SE 8.1 mph - N/A   Overcast
4:15 AM 32.0 °F 25.6 °F 23.0 °F 69% 29.86 in 10.0 mi ESE 6.9 mph - N/A   Overcast
4:35 AM 30.2 °F 21.3 °F 24.8 °F 80% 29.84 in 1.5 mi ESE 10.4 mph - N/A   Overcast
4:55 AM 28.4 °F 18.5 °F 26.6 °F 93% 29.83 in 0.8 mi SE 11.5 mph - N/A   Overcast
5:15 AM 28.4 °F 19.7 °F 26.6 °F 93% 29.81 in 1.0 mi ESE 9.2 mph - N/A   Overcast
5:35 AM 28.4 °F 21.2 °F 26.6 °F 93% 29.80 in 1.2 mi ESE 6.9 mph - N/A   Overcast
5:55 AM 28.4 °F 22.2 °F 26.6 °F 93% 29.79 in 1.5 mi East 5.8 mph - N/A   Overcast
6:15 AM 28.4 °F 22.2 °F 26.6 °F 93% 29.79 in 1.0 mi East 5.8 mph - N/A   Overcast
6:35 AM 28.4 °F 23.3 °F 26.6 °F 93% 29.78 in 1.0 mi East 4.6 mph - N/A   Overcast
6:55 AM 28.4 °F 23.3 °F 26.6 °F 93% 29.78 in 0.2 mi ENE 4.6 mph - N/A   Overcast
7:15 AM 28.4 °F 24.6 °F 26.6 °F 93% 29.77 in 0.5 mi ENE 3.5 mph - N/A   Overcast
7:35 AM 28.4 °F 23.3 °F 26.6 °F 93% 29.76 in 0.2 mi NE 4.6 mph - N/A   Overcast
7:55 AM 28.4 °F 24.6 °F 26.6 °F 93% 29.75 in 0.2 mi NE 3.5 mph - 0.01 in   Overcast
8:15 AM 28.4 °F - 26.6 °F 93% 29.75 in 0.5 mi Calm Calm - N/A   Overcast
8:35 AM 28.4 °F - 26.6 °F 93% 29.76 in 0.5 mi Calm Calm - N/A   Overcast
8:55 AM 28.4 °F - 26.6 °F 93% 29.75 in 1.2 mi Calm Calm - 0.02 in   Overcast
9:15 AM 30.2 °F - 26.6 °F 86% 29.73 in 1.8 mi Calm Calm - 0.01 in   Overcast
9:35 AM 30.2 °F 25.4 °F 26.6 °F 86% 29.74 in 6.0 mi SSW 4.6 mph - 0.03 in   Overcast
9:55 AM 32.0 °F 26.4 °F 28.4 °F 87% 29.73 in 9.0 mi WSW 5.8 mph - 0.05 in   Overcast
10:15 AM 32.0 °F 24.2 °F 28.4 °F 87% 29.73 in 9.0 mi West 9.2 mph 17.3 mph 0.02 in   Overcast
10:35 AM 33.8 °F 26.4 °F 26.6 °F 75% 29.73 in 9.0 mi West 9.2 mph 17.3 mph 0.05 in   Overcast
10:55 AM 33.8 °F 27.0 °F 26.6 °F 75% 29.71 in 10.0 mi West 8.1 mph - 0.07 in   Overcast
11:15 AM 33.8 °F 24.8 °F 26.6 °F 75% 29.72 in 10.0 mi WNW 12.7 mph 19.6 mph 0.02 in   Overcast
11:35 AM 35.6 °F 27.5 °F 26.6 °F 70% 29.72 in 10.0 mi West 11.5 mph 18.4 mph 0.04 in   Overcast
11:55 AM 35.6 °F 27.5 °F 26.6 °F 70% 29.72 in 10.0 mi WSW 11.5 mph 17.3 mph 0.06 in   Overcast
12:15 PM 35.6 °F 28.6 °F 26.6 °F 70% 29.71 in 10.0 mi WSW 9.2 mph 18.4 mph 0.01 in   Overcast
12:35 PM 37.4 °F 31.4 °F 28.4 °F 70% 29.71 in 10.0 mi West 8.1 mph 18.4 mph 0.02 in   Overcast
12:55 PM 37.4 °F 30.3 °F 28.4 °F 70% 29.72 in 10.0 mi West 10.4 mph 19.6 mph 0.04 in   Overcast
1:15 PM 35.6 °F 29.2 °F 28.4 °F 75% 29.73 in 10.0 mi WSW 8.1 mph 17.3 mph 0.01 in   Overcast
1:35 PM 35.6 °F 28.0 °F 28.4 °F 75% 29.72 in 10.0 mi West 10.4 mph 20.7 mph 0.01 in   Overcast
1:55 PM 35.6 °F 27.1 °F 28.4 °F 75% 29.72 in 10.0 mi West 12.7 mph 20.7 mph 0.01 in   Overcast
2:15 PM 37.4 °F 29.8 °F 28.4 °F 70% 29.73 in 10.0 mi WSW 11.5 mph 18.4 mph N/A   Overcast
2:35 PM 37.4 °F 30.3 °F 28.4 °F 70% 29.73 in 10.0 mi WSW 10.4 mph 18.4 mph N/A   Overcast
2:55 PM 37.4 °F 30.3 °F 28.4 °F 70% 29.73 in 10.0 mi West 10.4 mph 19.6 mph N/A   Overcast
3:15 PM 37.4 °F 30.3 °F 28.4 °F 70% 29.74 in 10.0 mi WSW 10.4 mph 17.3 mph N/A   Overcast
3:35 PM 37.4 °F 30.8 °F 28.4 °F 70% 29.74 in 10.0 mi West 9.2 mph 18.4 mph N/A   Overcast
3:55 PM 37.4 °F 29.8 °F 28.4 °F 70% 29.75 in 10.0 mi West 11.5 mph 20.7 mph N/A   Overcast
4:15 PM 37.4 °F 29.3 °F 30.2 °F 75% 29.75 in 10.0 mi West 12.7 mph 16.1 mph N/A   Overcast
4:35 PM 39.2 °F 33.0 °F 28.4 °F 65% 29.76 in 10.0 mi West 9.2 mph 18.4 mph N/A   Overcast
4:55 PM 39.2 °F 30.8 °F 28.4 °F 65% 29.76 in 10.0 mi West 15.0 mph 23.0 mph N/A   Overcast
5:15 PM 37.4 °F 30.3 °F 28.4 °F 70% 29.77 in 10.0 mi West 10.4 mph 19.6 mph N/A   Overcast
5:35 PM 37.4 °F 30.3 °F 28.4 °F 70% 29.78 in 10.0 mi West 10.4 mph 16.1 mph N/A   Overcast
5:55 PM 39.2 °F 32.0 °F 28.4 °F 65% 29.78 in 10.0 mi West 11.5 mph 20.7 mph N/A   Overcast
6:15 PM 39.2 °F 32.0 °F 28.4 °F 65% 29.79 in 10.0 mi West 11.5 mph 18.4 mph N/A   Overcast
6:35 PM 39.2 °F 32.5 °F 28.4 °F 65% 29.79 in 10.0 mi West 10.4 mph 19.6 mph N/A   Overcast
6:55 PM 39.2 °F 32.5 °F 28.4 °F 65% 29.80 in 10.0 mi West 10.4 mph 20.7 mph N/A   Overcast
7:15 PM 37.4 °F 29.3 °F 28.4 °F 70% 29.81 in 10.0 mi West 12.7 mph 19.6 mph N/A   Overcast
7:35 PM 39.2 °F 33.6 °F 28.4 °F 65% 29.81 in 10.0 mi WSW 8.1 mph 17.3 mph N/A   Overcast
7:55 PM 39.2 °F 32.5 °F 28.4 °F 65% 29.82 in 10.0 mi West 10.4 mph - N/A   Overcast
8:15 PM 39.2 °F 32.5 °F 28.4 °F 65% 29.83 in 10.0 mi West 10.4 mph 17.3 mph N/A   Overcast
8:35 PM 39.2 °F 32.0 °F 26.6 °F 61% 29.83 in 10.0 mi West 11.5 mph 17.3 mph N/A   Overcast
8:55 PM 39.2 °F 33.6 °F 28.4 °F 65% 29.84 in 10.0 mi West 8.1 mph 17.3 mph N/A   Overcast
9:15 PM 39.2 °F 33.6 °F 26.6 °F 61% 29.83 in 10.0 mi West 8.1 mph 16.1 mph N/A   Overcast
9:35 PM 39.2 °F 33.0 °F 26.6 °F 61% 29.84 in 10.0 mi West 9.2 mph - N/A   Overcast
9:55 PM 37.4 °F 30.8 °F 26.6 °F 65% 29.84 in 10.0 mi WSW 9.2 mph - N/A   Overcast
10:15 PM 37.4 °F 29.8 °F 26.6 °F 65% 29.84 in 10.0 mi West 11.5 mph 17.3 mph N/A   Overcast
10:35 PM 37.4 °F 30.8 °F 26.6 °F 65% 29.84 in 10.0 mi West 9.2 mph - N/A   Overcast
10:55 PM 39.2 °F 31.6 °F 26.6 °F 61% 29.84 in 10.0 mi West 12.7 mph 20.7 mph N/A   Overcast
11:15 PM 37.4 °F 30.8 °F 24.8 °F 60% 29.85 in 10.0 mi WNW 9.2 mph 16.1 mph N/A   Overcast
11:35 PM 39.2 °F 31.6 °F 24.8 °F 56% 29.85 in 10.0 mi WNW 12.7 mph 20.7 mph N/A   Overcast
11:55 PM 37.4 °F 29.8 °F 24.8 °F 60% 29.86 in 10.0 mi West 11.5 mph 16.1 mph N/A   Overcast